Weather History for Grant County, OR

Change the Weather History Date:

Saturday, March 2, 2013

  Actual Average (KBNO) Record (KBNO)
Temperature  
Mean Temperature 48 °F 33 °F  
Max Temperature 58 °F 45 °F 62 °F (1968)
Min Temperature 38 °F 22 °F 7 °F (1993)
Degree Days  
Heating Degree Days 17 32  
Month to date heating degree days 64  
Since 1 July heating degree days 5592  
Cooling Degree Days 0 0  
Month to date cooling degree days 0  
Year to date cooling degree days 0  
Moisture  
Dew Point 35 °F    
Average Humidity 63    
Maximum Humidity 89    
Minimum Humidity 43    
Precipitation  
Precipitation 0.00 in 0.04 in 0.27 in (2010)
Month to date precipitation 0.08  
Year to date precipitation 2.29  
Sea Level Pressure  
Sea Level Pressure 30.17 in    
Wind  
Wind Speed 8 mph (East)    
Max Wind Speed 16 mph    
Max Gust Speed 22 mph    
Visibility 10 miles    
Events      
T = Trace of Precipitation, MM = Missing Value Source: NWS Daily Summary

Daily Weather History Graph

Daily Weather History Graph

Search for Another Location

Airport:

Trip Planner

Search our weather history database for the weather conditions in past years. The results will help you decide how hot, cold, wet, or windy it might be!

Date:

Astronomy

Mar. 02, 2013 Rise Set
Actual Time 6:30 AM PST 5:45 PM PST
Civil Twilight 6:01 AM PST 6:14 PM PST
Nautical Twilight 5:28 AM PST 6:48 PM PST
Astronomical Twilight 4:54 AM PST 7:22 PM PST
Moon 11:45 PM PST (3/2) 8:48 AM PST (3/2)
Length of Visible Light 12h 13m
Length of Day
11h 14m
Waning Gibbous, 73% of the Moon is Illuminated
Mar 2
Waning Gibbous
Mar 4
Last Quarter
Mar 11
New
Mar 19
First Quarter
Mar 27
Full

Hourly Weather History & Observations

Time (PST) Temp. Windchill Dew Point Humidity Pressure Visibility Wind Dir Wind Speed Gust Speed Precip Events Conditions
12:15 AM 40.8 °F 35.6 °F 34.2 °F 77% 30.35 in 10.0 mi ESE 8.1 mph - N/A   Clear
12:35 AM 40.5 °F 34.1 °F 34.2 °F 78% 30.34 in 10.0 mi East 10.4 mph - N/A   Clear
12:55 AM 40.5 °F 34.1 °F 34.2 °F 78% 30.34 in 10.0 mi East 10.4 mph - N/A   Clear
1:15 AM 41.0 °F 35.8 °F 34.3 °F 77% 30.34 in 10.0 mi East 8.1 mph - N/A   Clear
1:35 AM 41.2 °F 35.5 °F 34.5 °F 77% 30.34 in 10.0 mi East 9.2 mph - N/A   Clear
1:55 AM 40.6 °F 34.3 °F 34.2 °F 78% 30.32 in 10.0 mi East 10.4 mph - N/A   Clear
2:15 AM 41.4 °F 36.2 °F 34.2 °F 76% 30.31 in 10.0 mi East 8.1 mph - N/A   Clear
2:35 AM 40.3 °F 36.3 °F 34.0 °F 78% 30.30 in 10.0 mi ESE 5.8 mph - N/A   Clear
3:15 AM 41.0 °F 36.4 °F 34.0 °F 76% 30.28 in 10.0 mi East 6.9 mph - N/A   Clear
4:15 AM 39.9 °F 37.8 °F 33.1 °F 77% 30.27 in 10.0 mi SSE 3.5 mph - N/A   Clear
4:35 AM 40.1 °F 34.7 °F 33.4 °F 77% 30.26 in 10.0 mi East 8.1 mph - N/A   Clear
4:55 AM 40.3 °F 35.5 °F 33.3 °F 76% 30.25 in 10.0 mi ENE 6.9 mph - N/A   Clear
5:15 AM 39.7 °F 33.7 °F 33.3 °F 78% 30.26 in 10.0 mi East 9.2 mph - N/A   Clear
5:35 AM 40.1 °F 34.7 °F 33.1 °F 76% 30.25 in 10.0 mi East 8.1 mph - N/A   Clear
5:55 AM 39.4 °F 33.2 °F 32.9 °F 78% 30.24 in 10.0 mi East 9.2 mph - N/A   Clear
6:15 AM 39.9 °F 33.9 °F 32.9 °F 76% 30.25 in 10.0 mi East 9.2 mph - N/A   Clear
6:35 AM 39.7 °F 34.3 °F 32.9 °F 77% 30.24 in 10.0 mi East 8.1 mph - N/A   Clear
6:55 AM 38.8 °F 34.6 °F 32.9 °F 79% 30.23 in 10.0 mi East 5.8 mph - N/A   Clear
7:15 AM 41.0 °F 35.2 °F 33.1 °F 73% 30.24 in 10.0 mi East 9.2 mph - N/A   Clear
7:35 AM 40.8 °F 36.2 °F 33.1 °F 74% 30.23 in 10.0 mi East 6.9 mph - N/A   Clear
7:55 AM 41.4 °F 37.6 °F 33.8 °F 74% 30.24 in 10.0 mi East 5.8 mph - N/A   Clear
8:15 AM 42.6 °F 39.0 °F 34.0 °F 71% 30.23 in 10.0 mi East 5.8 mph - N/A   Clear
8:35 AM 44.1 °F 39.5 °F 34.7 °F 70% 30.22 in 10.0 mi East 8.1 mph - N/A   Clear
8:55 AM 44.4 °F 40.0 °F 34.9 °F 69% 30.21 in 10.0 mi East 8.1 mph - N/A   Clear
9:15 AM 45.9 °F 41.7 °F 35.2 °F 66% 30.21 in 10.0 mi ENE 8.1 mph - N/A   Clear
9:35 AM 47.7 °F - 35.8 °F 63% 30.20 in 10.0 mi East 11.5 mph - N/A   Clear
9:55 AM 48.7 °F - 36.1 °F 62% 30.20 in 10.0 mi East 8.1 mph - N/A   Clear
10:15 AM 49.5 °F - 36.1 °F 60% 30.19 in 10.0 mi East 8.1 mph - N/A   Clear
10:35 AM 50.9 °F - 36.5 °F 58% 30.19 in 10.0 mi East 6.9 mph - N/A   Clear
10:55 AM 52.0 °F - 36.9 °F 56% 30.18 in 10.0 mi East 6.9 mph - N/A   Clear
11:15 AM 52.5 °F - 37.2 °F 56% 30.17 in 10.0 mi East 6.9 mph - N/A   Clear
11:35 AM 53.4 °F - 37.2 °F 54% 30.16 in 10.0 mi East 6.9 mph 17.3 mph N/A   Clear
11:55 AM 54.0 °F - 37.4 °F 54% 30.15 in 10.0 mi East 3.5 mph - N/A   Clear
12:15 PM 55.4 °F - 36.7 °F 49% 30.14 in 10.0 mi Calm Calm - N/A   Clear
12:35 PM 56.5 °F - 37.0 °F 48% 30.13 in 10.0 mi WNW 8.1 mph - N/A   Clear
12:55 PM 55.9 °F - 38.5 °F 52% 30.12 in 10.0 mi NW 5.8 mph - N/A   Clear
1:15 PM 58.6 °F - 36.3 °F 43% 30.11 in 10.0 mi SW 9.2 mph - N/A   Clear
1:35 PM 57.9 °F - 38.5 °F 48% 30.10 in 10.0 mi WNW 8.1 mph - N/A   Clear
1:55 PM 58.3 °F - 36.5 °F 44% 30.10 in 10.0 mi WNW 8.1 mph - N/A   Clear
2:15 PM 58.1 °F - 36.1 °F 44% 30.10 in 10.0 mi WNW 9.2 mph - N/A   Clear
2:35 PM 57.7 °F - 36.0 °F 44% 30.10 in 10.0 mi West 9.2 mph - N/A   Clear
2:55 PM 57.2 °F - 35.2 °F 44% 30.09 in 10.0 mi WNW 5.8 mph - N/A   Scattered Clouds
3:15 PM 56.8 °F - 35.6 °F 45% 30.08 in 10.0 mi WNW 6.9 mph - N/A   Scattered Clouds
3:35 PM 56.5 °F - 35.1 °F 45% 30.08 in 10.0 mi WNW 8.1 mph - N/A   Mostly Cloudy
3:55 PM 56.1 °F - 34.5 °F 44% 30.07 in 10.0 mi WNW 6.9 mph - N/A   Mostly Cloudy
4:15 PM 55.6 °F - 35.1 °F 46% 30.08 in 10.0 mi West 8.1 mph - N/A   Scattered Clouds
4:35 PM 55.0 °F - 34.9 °F 47% 30.07 in 10.0 mi WSW 9.2 mph - N/A   Scattered Clouds
4:55 PM 54.3 °F - 34.9 °F 48% 30.07 in 10.0 mi West 6.9 mph - N/A   Overcast
5:15 PM 53.6 °F - 34.7 °F 49% 30.07 in 10.0 mi West 9.2 mph - N/A   Overcast
5:35 PM 52.3 °F - 35.8 °F 53% 30.07 in 10.0 mi West 5.8 mph - N/A   Overcast
5:55 PM 52.0 °F - 32.5 °F 48% 30.07 in 10.0 mi NW 6.9 mph - N/A   Overcast
6:15 PM 51.1 °F - 32.0 °F 48% 30.07 in 10.0 mi Calm Calm - N/A   Overcast
6:35 PM 50.9 °F - 32.9 °F 50% 30.07 in 10.0 mi Calm Calm - N/A   Overcast
6:55 PM 49.5 °F - 35.6 °F 59% 30.07 in 10.0 mi West 5.8 mph - N/A   Overcast
7:15 PM 50.2 °F - 32.7 °F 51% 30.07 in 10.0 mi WNW 8.1 mph - N/A   Overcast
7:35 PM 49.3 °F - 32.5 °F 53% 30.07 in 10.0 mi Calm Calm - N/A   Overcast
7:55 PM 48.9 °F - 32.9 °F 54% 30.07 in 10.0 mi Calm Calm - N/A   Overcast
8:15 PM 48.2 °F - 32.9 °F 55% 30.08 in 10.0 mi West 6.9 mph - N/A   Overcast
8:35 PM 48.2 °F - 32.5 °F 55% 30.09 in 10.0 mi West 13.8 mph 19.6 mph N/A   Overcast
8:55 PM 46.8 °F - 33.4 °F 60% 30.09 in 10.0 mi WNW 16.1 mph 21.9 mph N/A   Overcast
9:15 PM 45.5 °F 38.6 °F 34.7 °F 66% 30.10 in 10.0 mi WNW 16.1 mph 19.6 mph N/A   Light Drizzle
9:35 PM 44.6 °F 38.8 °F 35.6 °F 71% 30.10 in 10.0 mi West 11.5 mph 18.4 mph N/A   Overcast
9:55 PM 43.5 °F 36.7 °F 36.5 °F 76% 30.10 in 10.0 mi West 13.8 mph - N/A   Overcast
10:15 PM 42.8 °F 36.6 °F 37.0 °F 80% 30.10 in 10.0 mi West 11.5 mph - N/A   Drizzle
10:35 PM 41.9 °F 37.5 °F 37.4 °F 84% 30.09 in 10.0 mi West 6.9 mph - N/A   Light Drizzle
10:55 PM 41.2 °F 36.6 °F 37.8 °F 88% 30.09 in 10.0 mi WSW 6.9 mph - N/A   Light Drizzle
11:15 PM 41.0 °F 38.0 °F 37.8 °F 88% 30.08 in 10.0 mi SW 4.6 mph - N/A   Light Drizzle
11:55 PM 40.8 °F 37.8 °F 37.8 °F 89% 30.06 in 10.0 mi SSW 4.6 mph - N/A   Overcast